View from above orbital plane
|
View from above satellite
|
Ground track
|
The orbit data is extracted from the following two-line orbital elements,
1 31065U 99025BFK 22220.84776042 .00000762 00000-0 36850-3 0 9996
2 31065 98.5793 261.2068 0038929 356.6327 3.4583 14.20996702471865
Epoch (UTC): | 08 August 2022 20:20:46 |
Eccentricity: | 0.0038929 |
inclination: | 98.5793° |
perigee height: | 794 km |
apogee height: | 850 km |
right ascension of ascending node: | 261.2068° |
argument of perigee: | 356.6327° |
revolutions per day: | 14.20996702 |
mean anomaly at epoch: | 3.4583° |
orbit number at epoch: | 47186 |
The dashed part of the orbit path shows where the satellite is in the earth's shadow,
|
|